TimeEDT,TemperatureF,Dew PointF,Humidity,Sea Level PressureIn,VisibilityMPH,Wind Direction,Wind SpeedMPH,Gust SpeedMPH,PrecipitationIn,Events,Conditions,WindDirDegrees,DateUTC
12:53 AM,52.0,48.0,86,30.02,10.0,Calm,Calm,-,N/A,,Clear,0,2013-05-08 04:53:00
1:53 AM,48.9,46.9,93,30.01,10.0,NE,3.5,-,N/A,,Partly Cloudy,50,2013-05-08 05:53:00
2:53 AM,50.0,48.0,93,29.99,10.0,Calm,Calm,-,N/A,,Scattered Clouds,0,2013-05-08 06:53:00
3:53 AM,50.0,46.0,86,29.99,10.0,Calm,Calm,-,N/A,,Mostly Cloudy,0,2013-05-08 07:53:00
4:53 AM,50.0,45.0,83,29.99,10.0,Calm,Calm,-,N/A,,Mostly Cloudy,0,2013-05-08 08:53:00
5:53 AM,52.0,46.0,80,29.98,10.0,Calm,Calm,-,N/A,,Overcast,0,2013-05-08 09:53:00
6:53 AM,57.0,45.0,64,29.98,10.0,North,3.5,-,N/A,,Overcast,350,2013-05-08 10:53:00
7:53 AM,60.1,44.1,55,30.00,10.0,Variable,6.9,-,N/A,,Overcast,0,2013-05-08 11:53:00
8:53 AM,63.0,44.1,50,30.01,10.0,NNE,4.6,-,N/A,,Mostly Cloudy,30,2013-05-08 12:53:00
9:53 AM,69.1,46.0,44,30.01,10.0,North,5.8,-,N/A,,Clear,10,2013-05-08 13:53:00
10:53 AM,73.0,48.0,41,30.01,10.0,Variable,5.8,-,N/A,,Partly Cloudy,0,2013-05-08 14:53:00
11:53 AM,75.0,48.9,40,30.00,10.0,Variable,3.5,-,N/A,,Partly Cloudy,0,2013-05-08 15:53:00
12:53 PM,77.0,48.9,37,29.99,10.0,East,8.1,-,N/A,,Partly Cloudy,90,2013-05-08 16:53:00
1:53 PM,79.0,48.9,35,29.97,10.0,NE,9.2,-,N/A,,Clear,50,2013-05-08 17:53:00
2:53 PM,78.1,48.0,35,29.96,10.0,NNE,9.2,-,N/A,,Mostly Cloudy,30,2013-05-08 18:53:00
3:53 PM,69.1,57.0,65,29.96,10.0,SSW,5.8,-,0.05,,Overcast,200,2013-05-08 19:53:00
4:22 PM,75.2,55.4,50,29.96,10.0,Variable,4.6,-,N/A,Thunderstorm,Overcast,0,2013-05-08 20:22:00
4:53 PM,66.9,57.0,70,29.96,10.0,SE,6.9,-,0.02,Rain,Light Rain,130,2013-05-08 20:53:00
5:53 PM,71.1,55.9,59,29.95,10.0,SW,3.5,-,0.00,,Clear,220,2013-05-08 21:53:00
6:53 PM,69.1,53.1,57,29.94,10.0,South,5.8,-,N/A,,Clear,190,2013-05-08 22:53:00
7:53 PM,66.9,54.0,63,29.95,10.0,SW,3.5,-,N/A,,Mostly Cloudy,220,2013-05-08 23:53:00
8:53 PM,64.9,55.0,70,29.96,10.0,Calm,Calm,-,N/A,,Mostly Cloudy,0,2013-05-09 00:53:00
9:53 PM,61.0,54.0,78,29.97,10.0,Calm,Calm,-,N/A,,Partly Cloudy,0,2013-05-09 01:53:00
10:53 PM,57.0,53.1,87,29.98,10.0,Calm,Calm,-,N/A,,Clear,0,2013-05-09 02:53:00
11:53 PM,51.1,50.0,96,29.97,10.0,Calm,Calm,-,N/A,,Partly Cloudy,0,2013-05-09 03:53:00